Погода в Норске

Погода в Норске : погода сейчас, прогноз погоды и архив. Всё, что Вы хотите узнать о погоде в Норске!

Хотите узнать прогноз погоды в Норске? Тогда Вам сюда: Погода в Норске

Поиск расширенной информации на нашем сайте:

Другие новости

Новости СМИ2

Главная страница сайта

Новости сайта

03.07.2017

Напоминаем, что на нашем специализированном сайте Метеоцентр.Азия вы можете получить высокодетализированные автоматические прогнозы погоды по пунктам России, СНГ и мира в авиационном формате (включающие направление и скорость ветра, видимость, явления погоды, количество и форму облачности, нижнюю и верхнюю границу облачности).


Погода в Норске - сегодня

Время (UTC), дата Ветер
(°,м/с) 
Видим.   Явления Облачность Т
(°С)
Тd
(°С)
f(%) Тe
(°С)
Pmin
(гПа)
dP
(гПа)
Po
(мм)
O2
(г/м3)
Тmin Tmax R s Состояние
почвы
03 16.04.18 210 (ЮЗ) 20000 м    10/0 верхняя 
[Cs]
+14.4 -12.8 14 +15  1004.2  -1.4  735  282           
06 16.04.18 210 (ЮЗ) 20000 м    3/0 верхняя 
[Ci fib]
+16.8 -11.8 13 +17  1001.9  -2.1  733  279           
09 16.04.18 200 (Ю) 20000 м    10/0 средняя, верхняя 
[Ac trans|Cs]
+14.7 -10.1 17 +15  1001.1  -0.8  733  281           
15 16.04.18 210 (ЮЗ) 20000 м    10/3 1000 м средняя, верхняя 
[Sc|Ac trans|Ci fib]
+8.1 -8 31 +8  1002.7  733  288           
18 16.04.18 200 (Ю) 4000 м  дым  6/0 средняя, верхняя 
[Ac trans|Ci fib]
+6 -4.2 48 +7  1002.7  -0.1  733  289           
00 17.04.18 210 (ЮЗ) 20000 м    9/0 средняя, верхняя 
[Ac trans|Ci fib]
+10.6 -3.5 37 +10  1003.1  0.3  734  285  +4.2        замёрзшая 
03 17.04.18 220 (ЮЗ) 20000 м    8/0 средняя, верхняя 
[Ac trans|Ci fib]
+16.2 -3.9 25 +17  1002.1  -0.5  733  279           
06 17.04.18 300 (СЗ) 20000 м    6/0 средняя, верхняя 
[Ac trans|Ci fib]
+16.6 -5.2 22 +17  1001.4  -0.7  733  279           
09 17.04.18 300 (СЗ) 20000 м    4/0 средняя 
[Ac trans]
+13.6 -9.1 20 +13  1002.8  1.1  734  282           
15 17.04.18 220 (ЮЗ) 20000 м    ясно 
+4.5 -12 29 +3  1007.3  1.1  737  293           
18 17.04.18 290 (З) 20000 м    ясно 
+0.1 -10.7 44 -1  1008.4  0.5  737  298           
21 17.04.18 290 (З) 20000 м    3/0 средняя 
[Ac trans]
-3.1 -11.7 51 -3  1009.3  0.7  737  302           
00 18.04.18 290 (З) 20000 м    ясно 
+5.1 -12 28 +5  1009.7  1.1  738  293  -3.1        замёрзшая 
03 18.04.18 280 (З) 20000 м    4/0 верхняя 
[Ci fib]
+10.4 -13 18 +10  1008.6  -0.5  738  287           
06 18.04.18 260 (З) 20000 м    6/0 верхняя 
[Ci fib]
+13.3 -12.8 15 +14  1006.9  -1.4  737  284           
09 18.04.18 260 (З) 20000 м    3/0 верхняя 
[Ci fib]
+13.5 -13.5 14 +15  1006.3  -0.6  736  284           
12 18.04.18 тихо ()   20000 м    ясно 
+2.3 -10.3 39 +2  1008.2  0.8  737  295    +14.4       
15 18.04.18 тихо ()   20000 м    ясно 
-3.2 -7 75 -3  1009.2  0.5  737  301           
18 18.04.18 тихо ()   20000 м    ясно 
-4.5 -7.1 82 -5  1009.3  737  303           
21 18.04.18 тихо ()   20000 м    8/0 верхняя 
[Ci fib]
-4.7 -7.1 83 -5  1010.1  0.8  738  303           
00 19.04.18 тихо ()   20000 м    10/0 верхняя 
[Cs]
+5.6 -7.3 39 +6  1009  -0.2  738  292  -5.6        влажная 
03 19.04.18 190 (Ю) 20000 м    4/0 верхняя 
[Ci fib]
+15.4 -12 14 +16  1006  -2  736  282           
06 19.04.18 190 (Ю) 20000 м    8/8 1000 м 
[Cu Sc]
+18.5 -10.5 13 +19  1002.5  -3.2  734  278           
09 19.04.18 320 (СЗ) 4{15}  20000 м    6/3 1000 м средняя, верхняя 
[Cu Sc|Ac lent|Ci fib]
+13.4 -2.2 34 +13  1005  735  283           
15 19.04.18 360 (С) 20000 м    8/3 1000 м средняя, верхняя 
[Sc|Ac trans|Ci fib]
+5 -3.6 54 +5  1011.3  2.4  740  293           
Время (UTC), дата Ветер
(°,м/с) 
Видим.   Явления Облачность Т
(°С)
Тd
(°С)
f(%) Тe
(°С)
Pmin
(гПа)
dP
(гПа)
Po
(мм)
O2
(г/м3)
Тmin Tmax R s Состояние
почвы

Для получения пояснительной информации подведите курсор к названию столбца.

ПОГОДА в Норске - архив

Всё, что Вы хотите узнать о погоде в Норске - удобно и подробно!

Выберите нужную дату (начиная с 1 января 2015* года) и нажмите кнопку "Найти".
Будут отображены архивные сводки погоды по пункту Норск, начиная с указанной даты.


Отображать данные в формате CSV (для использования в таблицах Excel)


Внимание! Наш архив погоды предназначен исключительно для личного некоммерческого использования в познавательных целях. Если Вам необходимы официальные справки о состоянии погоды (для производственных, юридических, коммерческих и т.п. целей), обращайтесь в органы Росгидромета.

*Примечание: данная дата относится к архиву по метеостанциям СССР (Россия, СНГ, Балтия).
Архив по метеостанциям Зарубежной Европы и Азии (кроме Китая) хранится 10 дней, по другим регионам земного шара (Китай, Африка, Америка, Австралия, Океания) - 1 день.

Норск - район местоположения метеостанции


Название, широта, долгота, высота метеостанции:
Норск 52.3°ш. 129.9°д. 208 м над ур. моря [Российская Федерация]

Дополнительная информация

В oтличие oт бoльшинства пoгoдных сайтoв мы публикуем пoдрoбную метеoинфoрмацию в детальнoм прoфессиoнальнoм фoрмате.

Характеристики температуры и влажнoсти вoздуха измеряются на высoте 2 м в тени вдали oт зданий и деревьев.
Скoрoсть ветра измеряется на высoте 10 м (на урoвне рoста челoвека скoрoсть ветра ниже в 1.5-2 раза). Если метеoстанция нахoдится в гoрoде или в лесу, тo скoрoсть ветра занижена на 2-4 м/с пo сравнению с oткрытым местoм. Скoрoсть ветра над акватoриями крупных рек и oзёр, а также на вершинах хoлмoв на 2-5 м/с выше, чем в oбычных услoвиях.
Атмoсфернoе давление в разных тoчках местнoсти мoжет значительнo oтличаться oт давления на метеoстанции, в зависимoсти oт услoвий рельефа (при пoдъёме на 10 м давление пoнижается примернo на 1 мм рт.ст.).